Location: ?
(35.4064°N, 139.3593°E)
Time: 07:05:56
(UTC+00:00)

H-2A R/B - Visible Passes

Search period start: 16 July 2024 00:00
Search period end: 26 July 2024 00:00
Orbit: 731 x 833 km, 98.2° (Epoch: 15 July)

Date Brightness Start Highest point End Pass type
(mag) Time Alt. Az. Time Alt. Az. Time Alt. Az.
16 Jul 2.6 18:39:18 10° NNE 18:44:08 56° E 18:48:55 10° S visible
17 Jul 3.9 18:08:04 10° NE 18:12:09 26° E 18:16:13 10° SSE visible
18 Jul 4.6 17:38:16 10° ENE 17:40:03 12° E 17:41:49 10° ESE visible
19 Jul 2.4 18:43:05 10° NNE 18:47:58 63° E 18:52:48 10° S visible
20 Jul 3.7 18:11:47 10° NE 18:16:01 29° E 18:20:13 10° SSE visible
21 Jul 4.6 17:41:36 10° ENE 17:43:55 13° E 17:46:14 10° ESE visible
22 Jul 2.2 18:46:53 10° NNE 18:51:47 70° ESE 18:56:40 10° S visible
23 Jul 3.5 18:15:29 10° NE 18:19:51 32° E 18:24:13 10° SSE visible
24 Jul 4.5 17:45:02 10° ENE 17:47:47 15° E 17:50:32 10° SE visible
25 Jul 2.1 18:50:41 10° NNE 18:55:36 78° ESE 19:00:31 10° S visible
